Year,Month,Day,Hour,Minute,Value (Times are PST for temperature in C)
2012,06,15,00,00,6.20
2012,06,15,00,01,6.20
2012,06,15,00,02,6.10
2012,06,15,00,03,6.10
2012,06,15,00,04,6.10
2012,06,15,00,05,6.10
2012,06,15,00,06,6.10
2012,06,15,00,07,6.10
2012,06,15,00,08,6.10
2012,06,15,00,09,6.00
2012,06,15,00,10,6.00
2012,06,15,00,11,6.00
2012,06,15,00,12,6.00
2012,06,15,00,13,6.00
2012,06,15,00,17,5.90
2012,06,15,00,18,5.90
2012,06,15,00,19,5.90
2012,06,15,00,20,5.90
2012,06,15,00,21,5.90
2012,06,15,00,22,5.90
2012,06,15,00,23,5.90
2012,06,15,00,24,5.90
2012,06,15,00,25,5.90
2012,06,15,00,26,5.90
2012,06,15,00,27,5.80
2012,06,15,00,28,5.80
2012,06,15,00,29,5.90
2012,06,15,00,30,5.90
2012,06,15,00,31,5.90
2012,06,15,00,32,5.90
2012,06,15,00,33,5.90
2012,06,15,00,34,5.90
2012,06,15,00,35,5.90
2012,06,15,00,36,5.90
2012,06,15,00,37,6.00
2012,06,15,00,38,6.00
2012,06,15,00,39,6.00
2012,06,15,00,40,6.00
2012,06,15,00,41,6.00
2012,06,15,00,42,6.00
2012,06,15,00,43,6.00
2012,06,15,00,44,6.00
2012,06,15,00,45,6.00
2012,06,15,00,46,6.00
2012,06,15,00,47,5.90
2012,06,15,00,48,5.90
2012,06,15,00,49,5.90
2012,06,15,00,50,5.90
2012,06,15,00,51,5.90
2012,06,15,00,52,5.90
2012,06,15,00,53,5.80
2012,06,15,00,54,5.80
2012,06,15,00,55,5.80
2012,06,15,00,56,5.80
2012,06,15,00,57,5.80
2012,06,15,00,58,5.80
2012,06,15,00,59,5.80
2012,06,15,01,00,5.80
2012,06,15,01,01,5.70
2012,06,15,01,02,5.70
2012,06,15,01,03,5.70
2012,06,15,01,04,5.70
2012,06,15,01,05,5.80
2012,06,15,01,06,5.70
2012,06,15,01,07,5.70
2012,06,15,01,08,5.80
2012,06,15,01,09,5.70
2012,06,15,01,10,5.70
2012,06,15,01,11,5.70
2012,06,15,01,12,5.70
2012,06,15,01,13,5.70
2012,06,15,01,14,5.70
2012,06,15,01,15,5.70
2012,06,15,01,16,5.70
2012,06,15,01,17,5.70
2012,06,15,01,18,5.70
2012,06,15,01,19,5.80
2012,06,15,01,20,5.80
2012,06,15,01,21,5.80
2012,06,15,01,22,5.80
2012,06,15,01,23,5.80
2012,06,15,01,24,5.80
2012,06,15,01,25,5.80
2012,06,15,01,26,5.80
2012,06,15,01,27,5.80
2012,06,15,01,28,5.80
2012,06,15,01,29,5.80
2012,06,15,01,30,5.80
2012,06,15,01,31,5.80
2012,06,15,01,32,5.80
2012,06,15,01,33,5.70
2012,06,15,01,34,5.70
2012,06,15,01,35,5.70
2012,06,15,01,36,5.70
2012,06,15,01,37,5.70
2012,06,15,01,38,5.60
2012,06,15,01,39,5.60
2012,06,15,01,40,5.60
2012,06,15,01,41,5.60
2012,06,15,01,42,5.60
2012,06,15,01,43,5.50
2012,06,15,01,44,5.50
2012,06,15,01,45,5.50
2012,06,15,01,46,5.50
2012,06,15,01,47,5.40
2012,06,15,01,48,5.40
2012,06,15,01,49,5.40
2012,06,15,01,50,5.40
2012,06,15,01,51,5.40
2012,06,15,01,52,5.40
2012,06,15,01,53,5.40
2012,06,15,01,54,5.40
2012,06,15,01,55,5.40
2012,06,15,01,56,5.40
2012,06,15,01,57,5.40
2012,06,15,01,58,5.40
2012,06,15,01,59,5.40
2012,06,15,02,00,5.40
2012,06,15,02,01,5.40
2012,06,15,02,02,5.40
2012,06,15,02,03,5.40
2012,06,15,02,04,5.40
2012,06,15,02,05,5.40
2012,06,15,02,06,5.40
2012,06,15,02,07,5.40
2012,06,15,02,08,5.40
2012,06,15,02,09,5.40
2012,06,15,02,10,5.40
2012,06,15,02,11,5.40
2012,06,15,02,12,5.40
2012,06,15,02,13,5.30
2012,06,15,02,14,5.30
2012,06,15,02,15,5.30
2012,06,15,02,16,5.30
2012,06,15,02,17,5.30
2012,06,15,02,18,5.30
2012,06,15,02,19,5.30
2012,06,15,02,20,5.30
2012,06,15,02,21,5.20
2012,06,15,02,22,5.20
2012,06,15,02,23,5.20
2012,06,15,02,24,5.20
2012,06,15,02,25,5.20
2012,06,15,02,26,5.20
2012,06,15,02,27,5.20
2012,06,15,02,28,5.20
2012,06,15,02,29,5.20
2012,06,15,02,30,5.20
2012,06,15,02,31,5.20
2012,06,15,02,32,5.20
2012,06,15,02,33,5.20
2012,06,15,02,34,5.20
2012,06,15,02,35,5.20
2012,06,15,02,36,5.20
2012,06,15,02,37,5.10
2012,06,15,02,38,5.10
2012,06,15,02,39,5.10
2012,06,15,02,40,5.10
2012,06,15,02,41,5.10
2012,06,15,02,42,5.00
2012,06,15,02,43,5.00
2012,06,15,02,44,5.00
2012,06,15,02,45,5.00
2012,06,15,02,46,5.00
2012,06,15,02,47,5.10
2012,06,15,02,48,5.10
2012,06,15,02,49,5.10
2012,06,15,02,50,5.10
2012,06,15,02,51,5.10
2012,06,15,02,52,5.00
2012,06,15,02,53,5.00
2012,06,15,02,54,5.00
2012,06,15,02,55,5.00
2012,06,15,02,56,5.00
2012,06,15,02,57,5.00
2012,06,15,02,58,5.00
2012,06,15,02,59,5.00
2012,06,15,03,00,5.00
2012,06,15,03,01,5.00
2012,06,15,03,02,5.00
2012,06,15,03,03,5.00
2012,06,15,03,04,4.90
2012,06,15,03,05,4.90
2012,06,15,03,06,4.90
2012,06,15,03,07,4.90
2012,06,15,03,08,4.90
2012,06,15,03,09,4.90
2012,06,15,03,10,4.90
2012,06,15,03,11,4.90
2012,06,15,03,12,4.90
2012,06,15,03,13,4.90
2012,06,15,03,14,4.90
2012,06,15,03,15,4.90
2012,06,15,03,16,4.90
2012,06,15,03,17,4.90
2012,06,15,03,18,4.90
2012,06,15,03,19,4.90
2012,06,15,03,20,4.90
2012,06,15,03,21,4.90
2012,06,15,03,22,4.90
2012,06,15,03,23,4.90
2012,06,15,03,24,4.90
2012,06,15,03,25,4.90
2012,06,15,03,26,4.90
2012,06,15,03,27,4.90
2012,06,15,03,28,4.90
2012,06,15,03,29,4.90
2012,06,15,03,30,4.80
2012,06,15,03,31,4.80
2012,06,15,03,32,4.80
2012,06,15,03,33,4.80
2012,06,15,03,34,4.80
2012,06,15,03,35,4.80
2012,06,15,03,36,4.80
2012,06,15,03,37,4.90
2012,06,15,03,38,4.90
2012,06,15,03,39,4.90
2012,06,15,03,40,4.90
2012,06,15,03,41,4.90
2012,06,15,03,42,4.90
2012,06,15,03,43,4.90
2012,06,15,03,44,4.90
2012,06,15,03,45,4.80
2012,06,15,03,46,4.80
2012,06,15,03,47,4.80
2012,06,15,03,48,4.80
2012,06,15,03,49,4.80
2012,06,15,03,50,4.80
2012,06,15,03,51,4.80
2012,06,15,03,52,4.90
2012,06,15,03,53,4.90
2012,06,15,03,54,4.80
2012,06,15,03,55,4.90
2012,06,15,03,56,4.90
2012,06,15,03,57,4.80
2012,06,15,03,58,4.80
2012,06,15,03,59,4.80
2012,06,15,04,00,4.80
2012,06,15,04,01,4.80
2012,06,15,04,02,4.80
2012,06,15,04,03,4.80
2012,06,15,04,04,4.80
2012,06,15,04,05,4.80
2012,06,15,04,06,4.80
2012,06,15,04,07,4.80
2012,06,15,04,08,4.80
2012,06,15,04,09,4.80
2012,06,15,04,10,4.80
2012,06,15,04,11,4.80
2012,06,15,04,12,4.80
2012,06,15,04,13,4.80
2012,06,15,04,14,4.80
2012,06,15,04,15,4.80
2012,06,15,04,16,4.80
2012,06,15,04,17,4.80
2012,06,15,04,18,4.80
2012,06,15,04,19,4.70
2012,06,15,04,20,4.70
2012,06,15,04,21,4.70
2012,06,15,04,22,4.70
2012,06,15,04,23,4.70
2012,06,15,04,24,4.70
2012,06,15,04,25,4.70
2012,06,15,04,26,4.70
2012,06,15,04,27,4.70
2012,06,15,04,28,4.70
2012,06,15,04,29,4.70
2012,06,15,04,30,4.70
2012,06,15,04,31,4.70
2012,06,15,04,32,4.70
2012,06,15,04,33,4.70
2012,06,15,04,34,4.60
2012,06,15,04,35,4.60
2012,06,15,04,36,4.60
2012,06,15,04,37,4.60
2012,06,15,04,38,4.60
2012,06,15,04,39,4.60
2012,06,15,04,40,4.60
2012,06,15,04,41,4.60
2012,06,15,04,42,4.60
2012,06,15,04,43,4.60
2012,06,15,04,44,4.60
2012,06,15,04,45,4.60
2012,06,15,04,46,4.60
2012,06,15,04,47,4.60
2012,06,15,04,48,4.60
2012,06,15,04,49,4.60
2012,06,15,04,50,4.60
2012,06,15,04,51,4.50
2012,06,15,04,52,4.60
2012,06,15,04,53,4.60
2012,06,15,04,54,4.60
2012,06,15,04,55,4.60
2012,06,15,04,56,4.60
2012,06,15,04,57,4.60
2012,06,15,04,58,4.60
2012,06,15,04,59,4.60
2012,06,15,05,00,4.60
2012,06,15,05,01,4.60
2012,06,15,05,02,4.60
2012,06,15,05,03,4.60
2012,06,15,05,04,4.60
2012,06,15,05,05,4.60
2012,06,15,05,06,4.60
2012,06,15,05,07,4.60
2012,06,15,05,08,4.60
2012,06,15,05,09,4.60
2012,06,15,05,10,4.60
2012,06,15,05,11,4.60
2012,06,15,05,12,4.60
2012,06,15,05,13,4.60
2012,06,15,05,14,4.50
2012,06,15,05,15,4.50
2012,06,15,05,16,4.60
2012,06,15,05,17,4.50
2012,06,15,05,18,4.50
2012,06,15,05,19,4.50
2012,06,15,05,20,4.50
2012,06,15,05,21,4.50
2012,06,15,05,22,4.50
2012,06,15,05,23,4.50
2012,06,15,05,24,4.50
2012,06,15,05,25,4.50
2012,06,15,05,26,4.50
2012,06,15,05,27,4.50
2012,06,15,05,28,4.50
2012,06,15,05,29,4.50
2012,06,15,05,30,4.50
2012,06,15,05,31,4.50
2012,06,15,05,32,4.50
2012,06,15,05,33,4.50
2012,06,15,05,34,4.50
2012,06,15,05,35,4.50
2012,06,15,05,36,4.50
2012,06,15,05,37,4.60
2012,06,15,05,38,4.60
2012,06,15,05,39,4.50
2012,06,15,05,40,4.50
2012,06,15,05,41,4.50
2012,06,15,05,42,4.50
2012,06,15,05,43,4.60
2012,06,15,05,44,4.60
2012,06,15,05,45,4.60
2012,06,15,05,46,4.60
2012,06,15,05,47,4.60
2012,06,15,05,48,4.60
2012,06,15,05,49,4.60
2012,06,15,05,50,4.60
2012,06,15,05,51,4.60
2012,06,15,05,52,4.60
2012,06,15,05,53,4.60
2012,06,15,05,54,4.60
2012,06,15,05,55,4.70
2012,06,15,05,56,4.70
2012,06,15,05,57,4.70
2012,06,15,05,58,4.70
2012,06,15,05,59,4.80
2012,06,15,06,00,4.80
2012,06,15,06,01,4.80
2012,06,15,06,02,4.90
2012,06,15,06,03,4.90
2012,06,15,06,04,4.90
2012,06,15,06,05,4.90
2012,06,15,06,06,4.90
2012,06,15,06,07,5.00
2012,06,15,06,08,5.00
2012,06,15,06,09,5.00
2012,06,15,06,10,5.10
2012,06,15,06,11,5.10
2012,06,15,06,12,5.10
2012,06,15,06,13,5.20
2012,06,15,06,14,5.20
2012,06,15,06,15,5.20
2012,06,15,06,16,5.30
2012,06,15,06,17,5.30
2012,06,15,06,18,5.40
2012,06,15,06,19,5.50
2012,06,15,06,20,5.50
2012,06,15,06,21,5.60
2012,06,15,06,22,5.60
2012,06,15,06,23,5.60
2012,06,15,06,24,5.60
2012,06,15,06,25,5.70
2012,06,15,06,26,5.70
2012,06,15,06,27,5.70
2012,06,15,06,28,5.70
2012,06,15,06,29,5.70
2012,06,15,06,30,5.70
2012,06,15,06,31,5.80
2012,06,15,06,32,5.80
2012,06,15,06,33,5.80
2012,06,15,06,34,5.80
2012,06,15,06,35,5.80
2012,06,15,06,36,5.80
2012,06,15,06,37,5.80
2012,06,15,06,38,5.80
2012,06,15,06,39,5.90
2012,06,15,06,40,5.90
2012,06,15,06,41,5.90
2012,06,15,06,42,5.90
2012,06,15,06,43,6.00
2012,06,15,06,44,6.00
2012,06,15,06,45,6.00
2012,06,15,06,46,6.00
2012,06,15,06,47,6.10
2012,06,15,06,48,6.10
2012,06,15,06,49,6.10
2012,06,15,06,50,6.10
2012,06,15,06,51,6.10
2012,06,15,06,52,6.10
2012,06,15,06,53,6.10
2012,06,15,06,54,6.20
2012,06,15,06,55,6.20
2012,06,15,06,56,6.20
2012,06,15,06,57,6.20
2012,06,15,06,58,6.20
2012,06,15,06,59,6.20
2012,06,15,07,00,6.20
2012,06,15,07,01,6.20
2012,06,15,07,02,6.20
2012,06,15,07,03,6.20
2012,06,15,07,04,6.20
2012,06,15,07,05,6.20
2012,06,15,07,06,6.20
2012,06,15,07,07,6.30
2012,06,15,07,08,6.30
2012,06,15,07,09,6.30
2012,06,15,07,10,6.30
2012,06,15,07,11,6.30
2012,06,15,07,12,6.40
2012,06,15,07,13,6.40
2012,06,15,07,14,6.50
2012,06,15,07,15,6.50
2012,06,15,07,16,6.50
2012,06,15,07,17,6.60
2012,06,15,07,18,6.60
2012,06,15,07,19,6.60
2012,06,15,07,20,6.70
2012,06,15,07,21,6.70
2012,06,15,07,22,6.70
2012,06,15,07,23,6.70
2012,06,15,07,24,6.70
2012,06,15,07,25,6.80
2012,06,15,07,26,6.80
2012,06,15,07,27,6.80
2012,06,15,07,28,6.80
2012,06,15,07,29,6.90
2012,06,15,07,30,6.90
2012,06,15,07,31,6.90
2012,06,15,07,32,6.90
2012,06,15,07,33,6.90
2012,06,15,07,34,7.00
2012,06,15,07,35,7.00
2012,06,15,07,36,7.00
2012,06,15,07,37,7.10
2012,06,15,07,38,7.10
2012,06,15,07,39,7.10
2012,06,15,07,40,7.10
2012,06,15,07,41,7.20
2012,06,15,07,42,7.20
2012,06,15,07,43,7.20
2012,06,15,07,44,7.30
2012,06,15,07,45,7.30
2012,06,15,07,46,7.30
2012,06,15,07,47,7.40
2012,06,15,07,48,7.40
2012,06,15,07,49,7.40
2012,06,15,07,50,7.50
2012,06,15,07,51,7.50
2012,06,15,07,52,7.60
2012,06,15,07,53,7.70
2012,06,15,07,54,7.70
2012,06,15,07,55,7.80
2012,06,15,07,56,7.80
2012,06,15,07,57,7.80
2012,06,15,07,58,7.80
2012,06,15,07,59,7.80
2012,06,15,08,00,7.80
2012,06,15,08,01,7.80
2012,06,15,08,02,7.90
2012,06,15,08,03,7.90
2012,06,15,08,04,7.90
2012,06,15,08,05,7.90
2012,06,15,08,06,7.90
2012,06,15,08,07,7.90
2012,06,15,08,08,7.90
2012,06,15,08,09,7.90
2012,06,15,08,10,7.90
2012,06,15,08,11,7.90
2012,06,15,08,12,7.90
2012,06,15,08,13,8.00
2012,06,15,08,14,8.00
2012,06,15,08,15,8.10
2012,06,15,08,16,8.10
2012,06,15,08,17,8.10
2012,06,15,08,18,8.20
2012,06,15,08,19,8.30
2012,06,15,08,20,8.40
2012,06,15,08,21,8.50
2012,06,15,08,22,8.50
2012,06,15,08,23,8.60
2012,06,15,08,24,8.60
2012,06,15,08,25,8.70
2012,06,15,08,26,8.70
2012,06,15,08,27,8.80
2012,06,15,08,28,8.80
2012,06,15,08,29,8.90
2012,06,15,08,30,8.90
2012,06,15,08,31,9.00
2012,06,15,08,32,9.10
2012,06,15,08,33,9.10
2012,06,15,08,34,9.30
2012,06,15,08,35,9.40
2012,06,15,08,36,9.50
2012,06,15,08,37,9.60
2012,06,15,08,38,9.70
2012,06,15,08,39,9.80
2012,06,15,08,40,9.80
2012,06,15,08,41,9.90
2012,06,15,08,42,9.90
2012,06,15,08,43,10.00
2012,06,15,08,44,10.00
2012,06,15,08,45,10.10
2012,06,15,08,46,10.10
2012,06,15,08,47,10.20
2012,06,15,08,48,10.30
2012,06,15,08,49,10.40
2012,06,15,08,50,10.50
2012,06,15,08,51,10.60
2012,06,15,08,52,10.60
2012,06,15,08,53,10.70
2012,06,15,08,54,10.80
2012,06,15,08,55,10.80
2012,06,15,08,56,10.90
2012,06,15,08,57,10.90
2012,06,15,08,58,10.90
2012,06,15,08,59,11.00
2012,06,15,09,00,11.10
2012,06,15,09,01,11.10
2012,06,15,09,02,11.20
2012,06,15,09,03,11.20
2012,06,15,09,04,11.30
2012,06,15,09,05,11.30
2012,06,15,09,06,11.30
2012,06,15,09,07,11.30
2012,06,15,09,08,11.30
2012,06,15,09,09,11.30
2012,06,15,09,10,11.30
2012,06,15,09,11,11.40
2012,06,15,09,12,11.50
2012,06,15,09,13,11.50
2012,06,15,09,14,11.60
2012,06,15,09,15,11.60
2012,06,15,09,16,11.70
2012,06,15,09,17,11.80
2012,06,15,09,18,11.80
2012,06,15,09,19,11.90
2012,06,15,09,20,12.00
2012,06,15,09,21,12.10
2012,06,15,09,22,12.10
2012,06,15,09,23,12.20
2012,06,15,09,24,12.20
2012,06,15,09,25,12.20
2012,06,15,09,26,12.20
2012,06,15,09,27,12.20
2012,06,15,09,28,12.20
2012,06,15,09,29,12.30
2012,06,15,09,30,12.30
2012,06,15,09,31,12.40
2012,06,15,09,32,12.40
2012,06,15,09,33,12.40
2012,06,15,09,34,12.40
2012,06,15,09,35,12.40
2012,06,15,09,36,12.30
2012,06,15,09,37,12.30
2012,06,15,09,38,12.30
2012,06,15,09,39,12.20
2012,06,15,09,40,12.10
2012,06,15,09,41,12.10
2012,06,15,09,42,12.00
2012,06,15,09,43,11.90
2012,06,15,09,44,11.90
2012,06,15,09,45,11.80
2012,06,15,09,46,11.70
2012,06,15,09,47,11.70
2012,06,15,09,48,11.70
2012,06,15,09,49,11.70
2012,06,15,09,50,11.60
2012,06,15,09,51,11.60
2012,06,15,09,52,11.60
2012,06,15,09,53,11.60
2012,06,15,09,54,11.60
2012,06,15,09,55,11.60
2012,06,15,09,56,11.60
2012,06,15,09,57,11.70
2012,06,15,09,58,11.80
2012,06,15,09,59,11.80
2012,06,15,10,00,11.80
2012,06,15,10,01,11.80
2012,06,15,10,02,11.90
2012,06,15,10,03,11.90
2012,06,15,10,04,11.90
2012,06,15,10,05,11.90
2012,06,15,10,06,12.00
2012,06,15,10,07,12.00
2012,06,15,10,08,12.10
2012,06,15,10,09,12.10
2012,06,15,10,10,12.10
2012,06,15,10,11,12.20
2012,06,15,10,12,12.20
2012,06,15,10,13,12.30
2012,06,15,10,14,12.30
2012,06,15,10,15,12.30
2012,06,15,10,16,12.40
2012,06,15,10,17,12.40
2012,06,15,10,18,12.40
2012,06,15,10,19,12.40
2012,06,15,10,20,12.50
2012,06,15,10,21,12.50
2012,06,15,10,22,12.60
2012,06,15,10,23,12.60
2012,06,15,10,24,12.60
2012,06,15,10,25,12.70
2012,06,15,10,26,12.70
2012,06,15,10,27,12.70
2012,06,15,10,28,12.80
2012,06,15,10,29,12.80
2012,06,15,10,30,12.80
2012,06,15,10,31,12.80
2012,06,15,10,32,12.80
2012,06,15,10,33,12.80
2012,06,15,10,34,12.90
2012,06,15,10,35,12.90
2012,06,15,10,36,13.00
2012,06,15,10,37,13.00
2012,06,15,10,38,13.10
2012,06,15,10,39,13.20
2012,06,15,10,40,13.30
2012,06,15,10,41,13.40
2012,06,15,10,42,13.50
2012,06,15,10,43,13.60
2012,06,15,10,44,13.70
2012,06,15,10,45,13.80
2012,06,15,10,46,13.80
2012,06,15,10,47,13.80
2012,06,15,10,48,13.80
2012,06,15,10,49,13.80
2012,06,15,10,50,13.80
2012,06,15,10,51,13.80
2012,06,15,10,52,13.80
2012,06,15,10,53,13.80
2012,06,15,10,54,13.90
2012,06,15,10,55,13.90
2012,06,15,10,56,14.00
2012,06,15,10,57,14.10
2012,06,15,10,58,14.20
2012,06,15,10,59,14.20
2012,06,15,11,00,14.30
2012,06,15,11,01,14.30
2012,06,15,11,02,14.30
2012,06,15,11,03,14.30
2012,06,15,11,04,14.30
2012,06,15,11,05,14.30
2012,06,15,11,06,14.30
2012,06,15,11,07,14.30
2012,06,15,11,08,14.40
2012,06,15,11,09,14.40
2012,06,15,11,10,14.40
2012,06,15,11,11,14.40
2012,06,15,11,12,14.50
2012,06,15,11,13,14.60
2012,06,15,11,14,14.60
2012,06,15,11,15,14.50
2012,06,15,11,16,14.40
2012,06,15,11,17,14.40
2012,06,15,11,18,14.30
2012,06,15,11,19,14.30
2012,06,15,11,20,14.40
2012,06,15,11,21,14.40
2012,06,15,11,22,14.30
2012,06,15,11,23,14.30
2012,06,15,11,24,14.30
2012,06,15,11,25,14.30
2012,06,15,11,26,14.30
2012,06,15,11,27,14.30
2012,06,15,11,28,14.30
2012,06,15,11,29,14.40
2012,06,15,11,30,14.30
2012,06,15,11,31,14.20
2012,06,15,11,32,14.10
2012,06,15,11,33,14.10
2012,06,15,11,34,14.10
2012,06,15,11,35,14.10
2012,06,15,11,36,14.20
2012,06,15,11,37,14.30
2012,06,15,11,38,14.30
2012,06,15,11,39,14.40
2012,06,15,11,40,14.50
2012,06,15,11,41,14.60
2012,06,15,11,42,14.70
2012,06,15,11,43,14.80
2012,06,15,11,44,14.90
2012,06,15,11,45,15.00
2012,06,15,11,46,15.00
2012,06,15,11,47,15.10
2012,06,15,11,48,15.10
2012,06,15,11,49,15.20
2012,06,15,11,50,15.20
2012,06,15,11,51,15.30
2012,06,15,11,52,15.30
2012,06,15,11,53,15.30
2012,06,15,11,54,15.30
2012,06,15,11,55,15.30
2012,06,15,11,56,15.30
2012,06,15,11,57,15.30
2012,06,15,11,58,15.30
2012,06,15,11,59,15.20
2012,06,15,12,00,15.10
2012,06,15,12,01,15.00
2012,06,15,12,02,14.90
2012,06,15,12,03,14.90
2012,06,15,12,04,14.90
2012,06,15,12,05,14.90
2012,06,15,12,06,14.90
2012,06,15,12,07,14.90
2012,06,15,12,08,15.00
2012,06,15,12,09,15.00
2012,06,15,12,10,15.10
2012,06,15,12,11,15.20
2012,06,15,12,12,15.20
2012,06,15,12,13,15.20
2012,06,15,12,14,15.20
2012,06,15,12,15,15.20
2012,06,15,12,16,15.30
2012,06,15,12,17,15.30
2012,06,15,12,18,15.20
2012,06,15,12,19,15.20
2012,06,15,12,20,15.20
2012,06,15,12,21,15.20
2012,06,15,12,22,15.10
2012,06,15,12,23,15.10
2012,06,15,12,24,15.10
2012,06,15,12,25,15.10
2012,06,15,12,26,15.10
2012,06,15,12,27,15.10
2012,06,15,12,28,15.10
2012,06,15,12,29,15.10
2012,06,15,12,30,15.10
2012,06,15,12,31,15.10
2012,06,15,12,32,15.20
2012,06,15,12,33,15.20
2012,06,15,12,34,15.20
2012,06,15,12,35,15.20
2012,06,15,12,36,15.20
2012,06,15,12,37,15.20
2012,06,15,12,38,15.20
2012,06,15,12,39,15.10
2012,06,15,12,40,15.10
2012,06,15,12,41,15.00
2012,06,15,12,42,15.00
2012,06,15,12,43,14.90
2012,06,15,12,44,15.00
2012,06,15,12,45,15.00
2012,06,15,12,46,15.10
2012,06,15,12,47,15.10
2012,06,15,12,48,15.10
2012,06,15,12,49,15.10
2012,06,15,12,50,15.10
2012,06,15,12,51,15.20
2012,06,15,12,52,15.20
2012,06,15,12,53,15.20
2012,06,15,12,54,15.30
2012,06,15,12,55,15.30
2012,06,15,12,56,15.40
2012,06,15,12,57,15.40
2012,06,15,12,58,15.40
2012,06,15,12,59,15.40
2012,06,15,13,00,15.40
2012,06,15,13,01,15.30
2012,06,15,13,02,15.20
2012,06,15,13,03,15.20
2012,06,15,13,04,15.10
2012,06,15,13,05,15.10
2012,06,15,13,06,15.10
2012,06,15,13,07,15.10
2012,06,15,13,08,15.10
2012,06,15,13,09,15.10
2012,06,15,13,10,15.10
2012,06,15,13,11,15.10
2012,06,15,13,12,15.10
2012,06,15,13,13,15.10
2012,06,15,13,14,15.20
2012,06,15,13,15,15.20
2012,06,15,13,16,15.20
2012,06,15,13,17,15.20
2012,06,15,13,18,15.20
2012,06,15,13,19,15.20
2012,06,15,13,20,15.20
2012,06,15,13,21,15.20
2012,06,15,13,22,15.20
2012,06,15,13,23,15.20
2012,06,15,13,24,15.30
2012,06,15,13,25,15.30
2012,06,15,13,26,15.30
2012,06,15,13,27,15.20
2012,06,15,13,28,15.20
2012,06,15,13,29,15.20
2012,06,15,13,30,15.20
2012,06,15,13,31,15.20
2012,06,15,13,32,15.20
2012,06,15,13,33,15.20
2012,06,15,13,34,15.20
2012,06,15,13,35,15.20
2012,06,15,13,36,15.20
2012,06,15,13,37,15.20
2012,06,15,13,38,15.20
2012,06,15,13,39,15.20
2012,06,15,13,40,15.30
2012,06,15,13,41,15.30
2012,06,15,13,42,15.30
2012,06,15,13,43,15.40
2012,06,15,13,44,15.40
2012,06,15,13,45,15.40
2012,06,15,13,46,15.40
2012,06,15,13,47,15.40
2012,06,15,13,48,15.40
2012,06,15,13,49,15.40
2012,06,15,13,50,15.40
2012,06,15,13,51,15.30
2012,06,15,13,52,15.30
2012,06,15,13,53,15.20
2012,06,15,13,54,15.20
2012,06,15,13,55,15.20
2012,06,15,13,56,15.20
2012,06,15,13,57,15.30
2012,06,15,13,58,15.30
2012,06,15,13,59,15.30
2012,06,15,14,00,15.30
2012,06,15,14,01,15.30
2012,06,15,14,02,15.20
2012,06,15,14,03,15.20
2012,06,15,14,04,15.20
2012,06,15,14,05,15.20
2012,06,15,14,06,15.20
2012,06,15,14,07,15.20
2012,06,15,14,08,15.20
2012,06,15,14,09,15.20
2012,06,15,14,10,15.20
2012,06,15,14,11,15.10
2012,06,15,14,12,15.10
2012,06,15,14,13,15.10
2012,06,15,14,14,15.10
2012,06,15,14,15,15.10
2012,06,15,14,16,15.10
2012,06,15,14,17,15.10
2012,06,15,14,18,15.10
2012,06,15,14,19,15.10
2012,06,15,14,20,15.00
2012,06,15,14,21,15.00
2012,06,15,14,22,15.00
2012,06,15,14,23,15.00
2012,06,15,14,24,15.00
2012,06,15,14,25,15.00
2012,06,15,14,26,15.10
2012,06,15,14,27,15.10
2012,06,15,14,28,15.10
2012,06,15,14,29,15.10
2012,06,15,14,30,15.20
2012,06,15,14,31,15.20
2012,06,15,14,32,15.20
2012,06,15,14,33,15.30
2012,06,15,14,34,15.30
2012,06,15,14,35,15.40
2012,06,15,14,36,15.40
2012,06,15,14,37,15.40
2012,06,15,14,38,15.40
2012,06,15,14,39,15.40
2012,06,15,14,40,15.40
2012,06,15,14,41,15.40
2012,06,15,14,42,15.40
2012,06,15,14,43,15.40
2012,06,15,14,44,15.40
2012,06,15,14,45,15.40
2012,06,15,14,46,15.40
2012,06,15,14,47,15.40
2012,06,15,14,48,15.40
2012,06,15,14,49,15.50
2012,06,15,14,50,15.50
2012,06,15,14,51,15.50
2012,06,15,14,52,15.40
2012,06,15,14,53,15.40
2012,06,15,14,54,15.30
2012,06,15,14,55,15.20
2012,06,15,14,56,15.10
2012,06,15,14,57,15.10
2012,06,15,14,58,15.00
2012,06,15,14,59,15.00
2012,06,15,15,00,15.00
2012,06,15,15,01,15.00
2012,06,15,15,02,15.00
2012,06,15,15,03,15.00
2012,06,15,15,04,15.00
2012,06,15,15,05,15.00
2012,06,15,15,06,15.00
2012,06,15,15,07,15.00
2012,06,15,15,08,14.90
2012,06,15,15,09,14.90
2012,06,15,15,10,15.00
2012,06,15,15,11,15.00
2012,06,15,15,12,15.00
2012,06,15,15,13,15.00
2012,06,15,15,14,15.00
2012,06,15,15,15,14.90
2012,06,15,15,16,14.90
2012,06,15,15,17,14.90
2012,06,15,15,18,14.90
2012,06,15,15,19,14.90
2012,06,15,15,20,14.90
2012,06,15,15,21,14.90
2012,06,15,15,22,14.90
2012,06,15,15,23,14.90
2012,06,15,15,24,14.90
2012,06,15,15,25,14.90
2012,06,15,15,26,15.00
2012,06,15,15,27,15.00
2012,06,15,15,28,15.00
2012,06,15,15,29,15.00
2012,06,15,15,30,15.10
2012,06,15,15,31,15.20
2012,06,15,15,32,15.30
2012,06,15,15,33,15.30
2012,06,15,15,34,15.40
2012,06,15,15,35,15.40
2012,06,15,15,36,15.40
2012,06,15,15,37,15.30
2012,06,15,15,38,15.30
2012,06,15,15,39,15.20
2012,06,15,15,40,15.20
2012,06,15,15,41,15.20
2012,06,15,15,42,15.20
2012,06,15,15,43,15.30
2012,06,15,15,44,15.30
2012,06,15,15,45,15.40
2012,06,15,15,46,15.50
2012,06,15,15,47,15.60
2012,06,15,15,48,15.70
2012,06,15,15,49,15.80
2012,06,15,15,50,15.90
2012,06,15,15,51,15.90
2012,06,15,15,52,16.00
2012,06,15,15,53,16.00
2012,06,15,15,54,16.10
2012,06,15,15,55,16.10
2012,06,15,15,56,16.10
2012,06,15,15,57,16.20
2012,06,15,15,58,16.20
2012,06,15,15,59,16.20
2012,06,15,16,00,16.30
2012,06,15,16,01,16.30
2012,06,15,16,02,16.20
2012,06,15,16,03,16.20
2012,06,15,16,04,16.10
2012,06,15,16,05,16.10
2012,06,15,16,06,16.10
2012,06,15,16,07,16.10
2012,06,15,16,08,16.10
2012,06,15,16,09,16.10
2012,06,15,16,10,16.20
2012,06,15,16,11,16.20
2012,06,15,16,12,16.20
2012,06,15,16,13,16.20
2012,06,15,16,14,16.20
2012,06,15,16,15,16.30
2012,06,15,16,16,16.30
2012,06,15,16,17,16.30
2012,06,15,16,18,16.40
2012,06,15,16,19,16.40
2012,06,15,16,20,16.50
2012,06,15,16,21,16.60
2012,06,15,16,22,16.70
2012,06,15,16,23,16.70
2012,06,15,16,24,16.70
2012,06,15,16,25,16.70
2012,06,15,16,26,16.70
2012,06,15,16,27,16.70
2012,06,15,16,28,16.60
2012,06,15,16,29,16.60
2012,06,15,16,30,16.60
2012,06,15,16,31,16.50
2012,06,15,16,32,16.40
2012,06,15,16,33,16.40
2012,06,15,16,34,16.40
2012,06,15,16,35,16.50
2012,06,15,16,36,16.50
2012,06,15,16,37,16.60
2012,06,15,16,38,16.60
2012,06,15,16,39,16.60
2012,06,15,16,40,16.60
2012,06,15,16,41,16.60
2012,06,15,16,42,16.60
2012,06,15,16,43,16.50
2012,06,15,16,44,16.50
2012,06,15,16,45,16.40
2012,06,15,16,46,16.30
2012,06,15,16,47,16.20
2012,06,15,16,48,16.00
2012,06,15,16,49,15.80
2012,06,15,16,50,15.70
2012,06,15,16,51,15.60
2012,06,15,16,52,15.60
2012,06,15,16,53,15.60
2012,06,15,16,54,15.60
2012,06,15,16,55,15.50
2012,06,15,16,56,15.50
2012,06,15,16,57,15.60
2012,06,15,16,58,15.60
2012,06,15,16,59,15.60
2012,06,15,17,00,15.70
2012,06,15,17,01,15.60
2012,06,15,17,02,15.60
2012,06,15,17,03,15.60
2012,06,15,17,04,15.50
2012,06,15,17,05,15.50
2012,06,15,17,06,15.50
2012,06,15,17,07,15.40
2012,06,15,17,08,15.40
2012,06,15,17,09,15.30
2012,06,15,17,10,15.30
2012,06,15,17,11,15.30
2012,06,15,17,12,15.40
2012,06,15,17,13,15.40
2012,06,15,17,14,15.40
2012,06,15,17,15,15.50
2012,06,15,17,16,15.50
2012,06,15,17,17,15.50
2012,06,15,17,18,15.60
2012,06,15,17,19,15.60
2012,06,15,17,20,15.60
2012,06,15,17,21,15.60
2012,06,15,17,22,15.60
2012,06,15,17,23,15.60
2012,06,15,17,24,15.70
2012,06,15,17,25,15.70
2012,06,15,17,26,15.70
2012,06,15,17,27,15.60
2012,06,15,17,28,15.60
2012,06,15,17,29,15.60
2012,06,15,17,30,15.60
2012,06,15,17,31,15.50
2012,06,15,17,32,15.40
2012,06,15,17,33,15.40
2012,06,15,17,34,15.40
2012,06,15,17,35,15.30
2012,06,15,17,36,15.20
2012,06,15,17,37,15.20
2012,06,15,17,38,15.10
2012,06,15,17,39,15.10
2012,06,15,17,40,15.10
2012,06,15,17,41,15.10
2012,06,15,17,42,15.10
2012,06,15,17,43,15.10
2012,06,15,17,44,15.10
2012,06,15,17,45,15.00